Regional Weather Roundup
Issued by NWS

Home | Current Version | Previous Version | Graphics & Text | Print | Product List | Glossary On
Versions: 1 2 3 4 5 6 7 8 9 10 11 12 13 14 15 16 17 18 19 20 21 22 23 24 25 26 27 28 29 30 31 32 33 34 35 36 37 38 39 40 41 42 43 44 45 46 47 48 49 50
000
ASUS45 KABQ 170301
RWRNM
NEW MEXICO REGIONAL WEATHER ROUNDUP
NATIONAL WEATHER SERVICE ALBUQUERQUE NM
800 PM MST SAT DEC 16 2017

NOTE: "FAIR" MEANS FEW OR NO CLOUDS BELOW 12,000 FEET AGL WITH NO
       SIGNIFICANT WEATHER OR OBSTRUCTIONS TO VISION.

      THIS PRODUCT IS RELEASED AS TWO VERSIONS.  ONE VERSION NEAR
      THE TOP OF THE HOUR CONTAINING PRELIMINARY DATA FROM ALBUQUERQUE
      AND OTHER STATIONS.  A FINAL VERSION WITH ADDITIONAL DATA IS
      ISSUED ABOUT 10 MINUTES AFTER THE HOUR.

NMZ501-503-504-510>518-170400-
NORTHWEST PLATEAU/NORTHCENTRAL MOUNTAINS

CITY           SKY/WX    TMP DP  RH WIND       PRES   REMARKS
FARMINGTON     MOCLDY    34  12  40 W6        29.80R WCI  29
LOS ALAMOS     FAIR      37  10  32 S5        29.82S WCI  33
SANTA FE       FAIR      35  15  44 VRB3      29.81R
TAOS           FAIR      29   6  38 SE3       29.84R
ANGEL FIRE     FAIR      23   4  44 CALM      29.83R

$$
NMZ402-403-502-505>509-170400-
WESTCENTRAL MOUNTAINS/SOUTHWEST MOUNTAINS

CITY           SKY/WX    TMP DP  RH WIND       PRES   REMARKS
GALLUP         FAIR      40   9  28 SW10      29.86R WCI  33
GRANTS         FAIR      42  -2  15 W5        29.86R
SILVER CITY    FAIR      35  14  43 NW9       29.90S WCI  27

$$
NMZ407-409-411-412-170400-
SOUTHERN DESERTS

CITY           SKY/WX    TMP DP  RH WIND       PRES   REMARKS
DEMING         FAIR      42  20  41 W6        29.89R
LAS CRUCES     FAIR      42  24  48 SW9       29.88S
HOLLOMAN AFB   FAIR      44  22  42 SE12      29.88R
ALAMOGORDO     FAIR      41  19  42 S9        29.87R
T OR C         FAIR      43  17  35 W5        29.84R

$$
NMZ519>523-170400-
CENTRAL VALLEYS/CENTRAL HIGHLANDS

CITY           SKY/WX    TMP DP  RH WIND       PRES   REMARKS
ALBUQUERQUE    MOCLDY    37  16  42 E7        29.83R WCI  32
DOUBLE EAGLE   CLEAR     27  12  54 S7        29.83R WCI  19
MORIARTY ARPT  FAIR      26   8  45 NE3       29.84R
CLINES CORNERS FAIR      28   7  41 W17       29.82R WCI  16
BELEN          NOT AVBL
SOCORRO        FAIR      38  16  40 S7        29.84R WCI  33

$$
NMZ524>526-539-540-170400-
SOUTHCENTRAL MOUNTAINS

CITY           SKY/WX    TMP DP  RH WIND       PRES   REMARKS
RUIDOSO        NOT AVBL

$$
NMZ527>531-170400-
NORTHEAST HIGHLANDS/NORTHEAST PLAINS

CITY           SKY/WX    TMP DP  RH WIND       PRES   REMARKS
LAS VEGAS      FAIR      30  11  45 N9        29.78R WCI  22
RATON          FAIR      39   9  29 N17       29.78R WCI  30
CLAYTON        FAIR      35  10  35 W8        29.73S WCI  29

$$
NMZ532>537-170400-
EASTCENTRAL PLAINS

CITY           SKY/WX    TMP DP  RH WIND       PRES   REMARKS
SANTA ROSA     FAIR      41  15  34 SW14      29.72R
TUCUMCARI      FAIR      41  15  35 SW5       29.71R
CANNON AFB     FAIR      34  29  84 S7        29.78S WCI  27
CLOVIS AIRPORT FAIR      34  27  75 S10       29.78S WCI  26

$$
NMZ028-029-538-170400-
SOUTHEAST PLAINS

CITY           SKY/WX    TMP DP  RH WIND       PRES   REMARKS
ROSWELL        FAIR      41  17  38 SW8       29.75R
ARTESIA        FAIR      50  23  34 SW20G26   29.78S
CARLSBAD       FAIR      39  27  62 SE6       29.79R WCI  35
HOBBS          FAIR      37  36  93 SW10      29.82S WCI  30


$$




USA.gov is the U.S. government's official web portal to all federal, state and local government web resources and services.